Location: Basse Occidentale du Courleau
(48.3833°N, 4.8333°W)
Time: 09:44:14
(UTC+00:00)

NOSS 3-3 (A) - Pass Details

Date: 05 July 2020
Orbit: 825 x 1387 km, 63.4° (Epoch: 03 August)

Event Time Altitude Azimuth Distance (km) Brightness Sun altitude
Rises 22:14:49 0° 212° (SSW) 3,410 6.6 -13.3°
Reaches altitude 10° 22:17:10 10° 211° (SSW) 2,518 5.9 -13.5°
Maximum altitude 22:22:58 75° 127° (SE) 975 3.9 -13.9°
Drops below altitude 10° 22:29:35 10° 43° (NE) 2,857 6.7 -14.5°
Sets 22:32:24 0° 42° (NE) 3,902 7.4 -14.7°
